This is the latest recevied weather packets stored in our database for station/object WC4PEM-13. If no packets are shown the sender has not sent any weather packets the latest 10 day(s).
| Time | Temp. | Humidity | Pressure | Rain* | Wind** | Luminosity | Snow |
|---|---|---|---|---|---|---|---|
| 1777050475 | 26.67° C | 59% | 1013.7 hPa | 0 mm | - | - | - |
| 1777050175 | 27.22° C | 57% | 1013.7 hPa | 0 mm | - | - | - |
| 1777049875 | 27.22° C | 58% | 1013.8 hPa | 0 mm | - | - | - |
| 1777049575 | 27.22° C | 60% | 1013.8 hPa | 0 mm | - | - | - |
| 1777049275 | 27.22° C | 57% | 1013.9 hPa | 0 mm | - | - | - |
| 1777048975 | 27.78° C | 57% | 1013.9 hPa | 0 mm | - | - | - |
| 1777048675 | 27.78° C | 56% | 1014.1 hPa | 0 mm | - | - | - |
| 1777048375 | 27.78° C | 57% | 1014.1 hPa | 0 mm | - | - | - |
| 1777048075 | 27.78° C | 57% | 1014.3 hPa | 0 mm | - | - | - |
| 1777047775 | 27.78° C | 57% | 1014.4 hPa | 0 mm | - | - | - |
| 1777047475 | 27.22° C | 59% | 1014.4 hPa | 0 mm | - | - | - |
| 1777047175 | 27.22° C | 59% | 1014.5 hPa | 0 mm | - | - | - |
| 1777046875 | 27.22° C | 58% | 1014.6 hPa | 0 mm | - | - | - |
| 1777046575 | 27.22° C | 57% | 1014.7 hPa | 0 mm | - | - | - |
| 1777046275 | 26.67° C | 61% | 1014.7 hPa | 0 mm | - | - | - |
| 1777045975 | 26.67° C | 60% | 1014.9 hPa | 0 mm | - | - | - |
| 1777045675 | 27.22° C | 60% | 1015.1 hPa | 0 mm | - | - | - |
| 1777045375 | 27.22° C | 59% | 1015.1 hPa | 0 mm | - | - | - |
| 1777045075 | 26.67° C | 62% | 1015.1 hPa | 0 mm | - | - | - |
| 1777044775 | 26.11° C | 62% | 1015.2 hPa | 0 mm | - | - | - |
| 1777044475 | 26.11° C | 61% | 1015.2 hPa | 0 mm | - | - | - |
| 1777044175 | 26.11° C | 60% | 1015.2 hPa | 0 mm | - | - | - |
| 1777043875 | 26.11° C | 62% | 1015.5 hPa | 0 mm | - | - | - |
| 1777043575 | 26.11° C | 60% | 1015.3 hPa | 0 mm | - | - | - |
| 1777043275 | 26.67° C | 61% | 1015.4 hPa | 0 mm | - | - | - |
* Rain latest hour (hover to see other rain measurements)
** Current wind speed in m/s (hover to see current wind gust speed)